User: anonymous   Login
Location: Noordwijk
(52.2400°N, 4.4500°E)
Time: 13:57:52
(UTC+00:00)
Language:

First-Move - Orbit

View from above orbital plane
View from above orbital plane
View from above satellite
View from above satellite

Ground track
Ground track

The orbit data is extracted from the following two-line orbital elements,

1 39439U 13066Z   22341.79884432  .00005639  00000-0  63480-3 0  9998
2 39439  97.6586 308.6752 0060185 188.0766 171.9487 14.85715930487771
Epoch (UTC): 07 December 2022 19:10:20
Eccentricity: 0.0060185
inclination: 97.6586°
perigee height: 569 km
apogee height: 653 km
right ascension of ascending node: 308.6752°
argument of perigee: 188.0766°
revolutions per day: 14.85715930
mean anomaly at epoch: 171.9487°
orbit number at epoch: 48777

The dashed part of the orbit path shows where the satellite is in the earth's shadow,  

DLR